Location: L�Ave Maria
(50.7161°N, 1.5911°E)
Time: 13:20:25
(UTC+00:00)

Cosmos 44 - Pass Details

Date: 10 July 2020
Orbit: 587 x 775 km, 65.1° (Epoch: 06 August)

Event Time Altitude Azimuth Distance (km) Brightness Sun altitude
Exits shadow 21:44:55 12° 182° (S) 1,814 5.0 -11.4°
Maximum altitude 21:48:31 34° 119° (ESE) 991 3.7 -11.7°
Drops below altitude 10° 21:52:31 10° 54° (NE) 1,977 5.7 -12.0°
Sets 21:54:59 0° 46° (NE) 2,914 6.7 -12.2°
